Weather History for Cartersville, GA

Change the Weather History Date:

Thursday, September 27, 2012

  Actual Average Record
Temperature  
Mean Temperature 70 °F 67 °F  
Max Temperature 86 °F 79 °F 89 °F (2005)
Min Temperature 55 °F 55 °F 41 °F (2000)
Degree Days  
Heating Degree Days 0 2  
Month to date heating degree days 10  
Since 1 July heating degree days 10  
Cooling Degree Days 6 4  
Month to date cooling degree days 199  
Year to date cooling degree days 1464  
Growing Degree Days 20 (Base 50)    
Moisture  
Dew Point 58 °F    
Average Humidity 74    
Maximum Humidity 100    
Minimum Humidity 37    
Precipitation  
Precipitation 0.00 in 0.14 in 2.12 in (1960)
Month to date precipitation 3.24  
Sea Level Pressure  
Sea Level Pressure 30.15 in    
Wind  
Wind Speed 0 mph (East)    
Max Wind Speed 5 mph    
Max Gust Speed -    
Visibility 9 miles    
Events      
T = Trace of Precipitation, MM = Missing Value Source: NWS Daily Summary

Daily Weather History Graph

Daily Weather History Graph

Search for Another Location

Airport:

Trip Planner

Search our weather history database for the weather conditions in past years. The results will help you decide how hot, cold, wet, or windy it might be!

Date:

Astronomy

Sep. 27, 2012 Rise Set
Actual Time 7:31 AM EDT 7:28 PM EDT
Civil Twilight 7:06 AM EDT 7:53 PM EDT
Nautical Twilight 6:37 AM EDT 8:22 PM EDT
Astronomical Twilight 6:08 AM EDT 8:51 PM EDT
Moon 5:56 PM EDT (9/27) 5:04 AM EDT (9/27)
Length of Visible Light 12h 47m
Length of Day
11h 57m
Waxing Gibbous, 94% of the Moon is Illuminated
Sep 27
Waxing Gibbous
Sep 29
Full
Oct 8
Last Quarter
Oct 15
New
Oct 21
First Quarter

Hourly Weather History & Observations

Time (EDT) Temp. Heat Index Dew Point Humidity Pressure Visibility Wind Dir Wind Speed Gust Speed Precip Events Conditions
12:53 AM 57.9 °F - 55.9 °F 93% 30.17 in 10.0 mi Calm Calm - N/A   Clear
1:53 AM 57.0 °F - 55.9 °F 96% 30.17 in 9.0 mi Calm Calm - N/A   Clear
2:53 AM 55.0 °F - 55.0 °F 100% 30.15 in 8.0 mi Calm Calm - N/A   Clear
3:53 AM 55.9 °F - 55.0 °F 97% 30.15 in 9.0 mi Calm Calm - N/A   Clear
4:53 AM 55.9 °F - 55.9 °F 100% 30.16 in 8.0 mi Calm Calm - N/A   Partly Cloudy
5:53 AM 55.0 °F - 55.0 °F 100% 30.17 in 7.0 mi Calm Calm - N/A   Clear
6:53 AM 57.0 °F - 55.9 °F 96% 30.18 in 9.0 mi SE 3.5 mph - N/A   Clear
7:53 AM 57.9 °F - 57.0 °F 97% 30.20 in 7.0 mi Calm Calm - N/A   Clear
8:53 AM 61.0 °F - 57.9 °F 90% 30.21 in 8.0 mi Calm Calm - N/A   Clear
9:53 AM 69.1 °F - 60.1 °F 73% 30.21 in 10.0 mi Calm Calm - N/A   Clear
10:53 AM 73.9 °F - 61.0 °F 64% 30.22 in 10.0 mi NE 3.5 mph - N/A   Clear
11:53 AM 79.0 °F - 59.0 °F 50% 30.20 in 10.0 mi Calm Calm - N/A   Clear
12:53 PM 82.0 °F 82.4 °F 60.1 °F 47% 30.17 in 10.0 mi Variable 4.6 mph - N/A   Clear
1:53 PM 82.9 °F 83.2 °F 60.1 °F 46% 30.16 in 10.0 mi Variable 3.5 mph - N/A   Mostly Cloudy
2:53 PM 86.0 °F 84.9 °F 57.0 °F 37% 30.12 in 10.0 mi Calm Calm - N/A   Clear
3:53 PM 84.9 °F 83.9 °F 57.0 °F 38% 30.10 in 10.0 mi Calm Calm - N/A   Clear
4:53 PM 84.0 °F 83.5 °F 57.9 °F 41% 30.09 in 10.0 mi Calm Calm - N/A   Clear
5:53 PM 84.9 °F 83.9 °F 57.0 °F 38% 30.08 in 10.0 mi Calm Calm - N/A   Mostly Cloudy
6:53 PM 81.0 °F 81.6 °F 60.1 °F 49% 30.09 in 10.0 mi Calm Calm - N/A   Clear
7:53 PM 70.0 °F - 62.1 °F 76% 30.08 in 10.0 mi Calm Calm - N/A   Clear
8:53 PM 66.9 °F - 61.0 °F 81% 30.09 in 10.0 mi Calm Calm - N/A   Clear
9:53 PM 64.0 °F - 61.0 °F 90% 30.11 in 10.0 mi Calm Calm - N/A   Clear
10:53 PM 63.0 °F - 61.0 °F 93% 30.12 in 10.0 mi Calm Calm - N/A   Clear
11:53 PM 61.0 °F - 59.0 °F 93% 30.12 in 10.0 mi Calm Calm - N/A   Clear